www.pogodaiklimat.ru

Погода и климат >> Архив погоды >> Бельгия >> Elsenborn


ПОГОДА в Elsenborn

  • Прогноз погоды в Elsenborn
  • Монитор погоды в Elsenborn
  • Климат города

АРХИВ ПОГОДЫ в Elsenborn

Время (UTC), дата Ветер
(напр.,м/с)
 
Видим.   Явления Облачность Т
(С)
Тd
(С)
f
(%)
Тe
(С)
Тes
(С)
Комфортность P
(гПа)
Po
(гПа)
Тmin
(С)
Tmax
(С)
R
(мм)
R24
(мм)
S
(см)
22 11.08
{2}
20 км н/о +6.6 +5.2 91 1024.0 956.5
23 11.08
{1}
20 км н/о +6.0 +4.9 93 1024.0 956.2
00 12.08
{2}
20 км н/о +5.5 +4.7 95 1023.7 955.8
02 12.08 20 км н/о +4.1 +3.6 97 1023.1 954.9
01 12.08
{1}
20 км н/о +4.5 +3.8 95 1023.3 955.3
03 12.08
{1}
20 км н/о +3.5 +3.0 97 1022.6 954.3
04 12.08
{1}
20 км н/о +3.0 +2.3 95 1022.2 953.8
05 12.08 штиль 0 20 км н/о +4.3 +3.9 97 +3 +3 1021.6 953.6
06 12.08 штиль 0
{1}
20 км н/о +8.2 +6.5 89 +7 +7 1020.3 953.4 +3.0
08 12.08
{4}
20 км н/о +17.0 +7.3 53 1017.7 953.0
07 12.08
{1}
20 км н/о +14.4 +8.8 69 1018.6 953.1
09 12.08 Ю 2
{5}
20 км н/о +18.4 +7.3 48 +19 +19 1017.2 952.6
10 12.08
{4}
20 км н/о +19.3 +7.2 45 1016.5 952.2
11 12.08
{5}
20 км н/о +20.7 +7.0 41 1015.7 951.8
12 12.08 ЮЗ 2
{6}
20 км н/о +21.8 +7.5 40 +23 +23 комфорт 1014.7 951.1
14 12.08
{5}
20 км н/о +22.6 +4.5 31 1013.1 949.7
13 12.08
{5}
20 км н/о +22.3 +5.7 34 1013.8 950.4
15 12.08
{6}
20 км н/о +22.5 +4.9 32 1012.3 949.0
16 12.08
{5}
20 км н/о +22.1 +4.3 31 1012.1 948.6
17 12.08
{4}
20 км н/о +22.6 +3.4 28 1011.1 947.8
18 12.08
{6}
20 км н/о +22.0 +4.0 31 1010.7 947.4 +23.7
20 12.08
{2}
20 км н/о +17.7 +5.8 46 1011.5 947.1
19 12.08
{2}
20 км н/о +18.3 +6.7 47 1011.3 947.2
21 12.08
{2}
20 км н/о +14.3 +7.0 61 1011.7 946.6
22 12.08 штиль 0
{1}
20 км н/о +12.0 +7.2 72 +12 +12 1011.7 946.3
23 12.08 20 км н/о +11.6 +7.7 77 1011.2 945.7
00 13.08 штиль 0
{2}
20 км н/о +11.0 +7.3 78 +10 +10 1010.8 945.2
02 13.08
{1}
20 км н/о +10.6 +7.6 82 1009.3 943.7
01 13.08 штиль 0 20 км н/о +10.8 +7.3 79 +10 +10 1010.0 944.3
03 13.08
{5}
20 км слаб. дождь н/о +14.5 +11.2 81 1008.3 943.7
04 13.08
{4}
20 км слаб. дождь н/о +14.3 +11.7 84 1009.1 944.3
05 13.08
{4}
14 км слаб. дождь н/о +13.3 +12.8 97 1009.6 944.5
06 13.08
{5}
20 км {дождь} н/о +13.6 +13.3 98 1007.7 942.9 +10.6 4
07 13.08
{3}
20 км н/о +14.1 +13.6 97 1008.3 943.6
09 14.08 З 2
{5}
7000 м {дождь, морось} н/о +14.4 +13.9 97 +14 +14 1015.5 950.3
10 14.08 З 2
{5}
7000 м н/о +15.0 +14.1 94 +15 +15 1015.7 950.7
11 14.08 З 2
{6}
9000 м н/о +16.0 +14.3 90 +16 +16 1015.8 951.1
12 14.08 З 2
{6}
8000 м {дождь, морось} н/о +16.8 +14.9 89 +17 +17 1016.1 951.5 0.7
13 14.08 З 2
{6}
18 км н/о +18.5 +14.5 78 +20 +20 1015.7 951.5
14 14.08 З 2
{6}
16 км слаб. морось {дождь} н/о +16.7 +14.8 89 +17 +17 1016.7 952.0
15 14.08 СЗ 3
{6}
5000 м дымка {дождь, морось} н/о +15.6 +14.7 94 +15 +15 1017.3 952.4
16 14.08
{5}
8000 м н/о +16.6 +14.3 86 1017.3 952.6
17 14.08 З 2
{4}
11 км н/о +17.0 +14.1 83 +17 +17 1017.5 952.8
18 14.08 З 2
{6}
9000 м {дождь, морось} н/о +16.7 +14.4 86 +17 +17 1017.6 952.8 +18.6 0.8
19 14.08
{4}
7000 м н/о +15.9 +14.3 90 1018.2 953.3
20 14.08
{2}
4100 м дымка н/о +14.7 +14.0 96 1019.2 953.9
21 14.08
{4}
3400 м дымка н/о +14.2 +13.5 96 1019.3 954.0
22 14.08
{2}
6000 м дымка н/о +13.8 +13.1 96 1019.7 954.3
23 14.08
{2}
9000 м н/о +13.6 +12.5 93 1020.2 954.6
00 15.08
{4}
8000 м н/о +13.4 +12.4 94 1020.2 954.5
01 15.08
{1}
4500 м дымка н/о +12.3 +12.2 99 1020.2 954.3
02 15.08
{2}
10 км н/о +13.1 +12.3 95 1020.0 954.2
03 15.08
{2}
4300 м дымка н/о +12.4 +12.1 98 1019.8 954.0
04 15.08
{2}
200 м туман н/о +12.1 +12.1 100 1020.2 954.2
05 15.08
{2}
200 м туман н/о +11.6 +11.6 100 1020.5 954.3
06 15.08
{3}
400 м туман н/о +12.1 +12.1 100 1020.7 954.7 +11.6
07 15.08
{4}
900 м туман н/о +12.6 +12.5 99 1020.8 955.0
08 15.08 ЮЗ 2
{4}
6000 м дымка {туман} н/о +13.9 +13.6 98 +13 +13 1021.0 955.3
09 15.08
{5}
14 км {туман} н/о +15.1 +13.8 92 1021.1 955.8
10 15.08
{4}
19 км н/о +15.9 +14.0 88 1021.0 955.8
11 15.08 ЮЗ 2
{4}
17 км н/о +17.6 +13.6 77 +18 +18 1020.5 955.7
12 15.08
{5}
20 км {туман} н/о +19.6 +12.4 63 1019.8 955.5
13 15.08
{5}
20 км н/о +19.1 +12.8 67 1019.8 955.5
14 15.08
{4}
20 км н/о +19.2 +12.3 64 1019.7 955.3
15 15.08
{5}
20 км н/о +19.3 +12.2 63 1019.6 955.2
16 15.08
{3}
20 км н/о +19.7 +12.3 62 1019.2 955.0
17 15.08
{3}
20 км н/о +19.7 +13.1 66 1019.0 954.7
18 15.08
{5}
20 км н/о +19.1 +13.3 69 1019.0 954.6 +20.0
19 15.08
{2}
20 км н/о +16.0 +13.7 86 1019.7 954.7
20 15.08 штиль 0 20 км н/о +13.5 +12.6 94 +13 +13 1020.5 954.8
21 15.08
{2}
16 км н/о +13.1 +12.7 97 1020.5 954.7
22 15.08 штиль 0
{1}
17 км н/о +11.1 +10.5 96 +10 +10 1021.0 954.7
23 15.08 13 км н/о +10.1 +9.7 97 1021.1 954.5
00 16.08
{2}
19 км н/о +9.3 +9.0 98 1021.0 954.2
01 16.08 1600 м дымка н/о +8.3 +8.0 98 1021.0 954.0
02 16.08 7000 м дымка {туман} н/о +7.4 +7.4 100 1021.0 953.8
03 16.08 600 м дымка {туман} н/о +6.8 +6.6 99 1020.6 953.3
04 16.08 штиль 0 16 км {туман} н/о +6.1 +5.9 99 +5 +5 1020.3 952.9
05 16.08 штиль 0 1900 м туман н/о +6.0 +5.9 99 +5 +5 1020.5 953.0
06 16.08 11 км дымка {туман} н/о +9.1 +8.9 99 1019.6 952.9 +5.9
07 16.08
{1}
20 км н/о +15.0 +13.1 88 1017.8 952.7
08 16.08
{3}
18 км н/о +16.8 +13.4 80 1017.3 952.7
09 16.08
{4}
20 км н/о +17.9 +13.1 73 1017.2 952.7
10 16.08
{4}
19 км н/о +20.2 +12.7 62 1016.2 952.2
11 16.08
{4}
19 км н/о +21.4 +13.1 59 1015.5 951.9
12 16.08
{5}
20 км н/о +22.9 +13.3 55 1015.0 951.6
13 16.08
{4}
20 км н/о +23.3 +12.6 51 1014.5 951.3
14 16.08
{4}
20 км н/о +24.5 +13.2 49 1013.7 950.9
15 16.08
{4}
20 км н/о +25.4 +13.5 48 1013.2 950.6
16 16.08
{3}
20 км н/о +25.1 +11.9 44 1013.1 950.3
17 16.08
{3}
20 км н/о +25.2 +12.1 44 1012.7 950.0
18 16.08
{4}
20 км н/о +23.1 +13.7 55 1013.0 949.8 +26.0
19 16.08
{1}
20 км н/о +19.2 +13.7 70 1014.2 950.1
20 16.08
{1}
20 км н/о +17.6 +13.5 77 1014.6 950.1
21 16.08 штиль 0
{1}
19 км н/о +15.1 +13.4 90 +15 +15 1015.2 950.3
22 16.08
{1}
12 км н/о +14.1 +12.9 92 1015.5 950.2
23 16.08
{1}
10 км н/о +12.6 +11.8 95 1015.7 950.2
00 17.08
{1}
10 км н/о +13.5 +12.2 92 1015.2 949.8
01 17.08 штиль 0
{1}
5000 м н/о +12.0 +11.2 95 +11 +11 1015.2 949.6
02 17.08
{4}
3000 м дымка н/о +14.6 +13.7 94 1015.5 950.4
03 17.08
{9}
19 км {дождь} н/о +14.1 +12.9 92 1015.7 950.4
04 17.08 С 3
{6}
2300 м дымка н/о +14.1 +13.7 97 +13 +13 1016.0 950.7
05 17.08 СЗ 3
{6}
10 км н/о +14.3 +12.9 91 +13 +13 1016.7 951.5
06 17.08 В 2
{9}
7000 м {дождь} н/о +14.1 +13.6 97 +13 +13 1016.7 951.5 +11.1 1
07 17.08
{3}
6000 м слаб. дождь н/о +14.3 +14.0 98 1017.0 951.7
08 17.08
{3}
19 км {дождь} н/о +15.0 +14.0 94 1017.2 952.1
09 17.08 С 2
{3}
13 км {дождь} н/о +16.2 +14.4 89 +16 +16 1017.7 952.9
10 17.08 СЗ 2
{4}
13 км н/о +15.7 +14.3 91 +16 +16 1018.2 953.3
11 17.08
{4}
1600 м туман н/о +14.1 +14.1 100 1019.2 953.8
12 17.08 СЗ 2
{4}
20 км {дождь, туман} н/о +15.3 +13.6 90 +15 +15 1019.2 954.1 0.9
13 17.08 СЗ 2
{5}
11 км н/о +14.6 +13.4 93 +14 +14 1019.7 954.4
14 17.08 С 2
{4}
20 км н/о +16.5 +12.1 75 +17 +17 1019.5 954.5
15 17.08 С 2
{5}
20 км н/о +16.4 +10.9 70 +17 +17 1019.3 954.4
16 17.08 С 2
{5}
20 км н/о +17.3 +11.3 68 +18 +18 1019.2 954.4
17 17.08 СЗ 2
{4}
20 км н/о +17.4 +11.4 68 +18 +18 1019.3 954.6
18 17.08
{5}
20 км н/о +16.4 +10.8 69 1019.7 954.7 +17.8 0.9
19 17.08
{2}
20 км н/о +13.2 +10.9 86 1021.0 955.1
20 17.08 16 км н/о +10.6 +9.8 95 1022.2 955.8
21 17.08
{2}
14 км н/о +9.9 +9.4 97 1022.8 956.2
22 17.08
{1}
19 км н/о +9.6 +9.0 96 1023.2 956.3
23 17.08 13 км н/о +9.5 +8.8 95 1023.5 956.6
00 18.08
{2}
12 км н/о +7.6 +7.2 97 1023.8 956.6
01 18.08
{1}
8000 м н/о +6.2 +5.7 97 1024.4 956.6
02 18.08
{2}
8000 м н/о +6.2 +5.7 97 1024.7 957.0
03 18.08
{2}
11 км н/о +5.2 +4.9 98 1024.9 956.8
04 18.08
{2}
12 км н/о +4.5 +4.0 97 1025.2 957.0
05 18.08 10 км н/о +4.4 +4.1 98 1025.2 957.1
06 18.08 штиль 0
{2}
20 км н/о +7.3 +6.7 96 +6 +6 1024.7 957.3 +4.3
07 18.08 20 км н/о +11.7 +10.0 89 1023.8 957.5
08 18.08
{3}
20 км н/о +16.2 +10.4 68 1022.7 957.4
09 18.08 ЮЗ 2
{5}
20 км н/о +17.1 +9.5 61 +17 +17 1023.0 957.9
10 18.08 З 2
{5}
20 км н/о +17.8 +9.3 57 +18 +18 1022.8 957.9
11 18.08
{6}
20 км н/о +19.2 +8.9 51 1022.5 957.9
12 18.08 З 2
{6}
20 км н/о +19.8 +9.3 51 +22 +22 комфорт 1022.2 957.8
13 18.08
{5}
20 км н/о +20.8 +9.3 48 1021.7 957.4
14 18.08
{5}
20 км н/о +21.0 +9.6 48 1021.2 957.0
15 18.08
{5}
20 км н/о +21.2 +8.8 45 1021.1 957.0
16 18.08 З 2
{5}
20 км н/о +21.2 +8.4 44 +22 +22 комфорт 1021.0 956.8
17 18.08 СЗ 2
{5}
20 км н/о +20.4 +8.5 46 +22 +22 комфорт 1021.2 956.9
18 18.08 СЗ 2
{5}
20 км н/о +19.0 +8.7 51 +20 +20 1021.7 957.1 +21.7
19 18.08
{3}
20 км н/о +16.1 +10.0 67 1022.7 957.4
20 18.08
{2}
20 км н/о +14.1 +11.0 82 1023.5 957.7
21 18.08
{3}
20 км н/о +12.8 +10.9 88 1024.2 958.1

 

Местоположение метеостанции Elsenborn (Бельгия): широта 50.47 долгота 6.18 высота над уровнем моря 570 м.

В архиве по умолчанию представлена погода в Elsenborn за последнюю неделю. Архивные данные за месяц целиком и за предыдущие месяцы, начиная с января 2011 года, Вы можете получить, выбрав интересующий диапазон дат из раскрывающегося списка и нажав кнопку "Ввод!".


*Определитесь, кто Вы:
робот инопланетянин человек

Внимание! Время в таблицах - всемирное. Для получения местного времени необходимо прибавить поправку, которая в Elsenborn равна 1 ч.

Смотрите также архив погоды в соседних городах и на ближайших метеорологических станциях:

Погода в Mont-Rigi (Бельгия) (10 км)
Погода в Spa (Бельгия) (18 км)
Погода в Aachen-Orsbach (Германия) (37 км)
Погода в Nuerburg-Barweiler (Германия) (50 км)
Погода в Noervenich (Германия) (53 км)
Погода в Bierset (Бельгия) (55 км)
Погода в Geilenkirchen (Германия) (56 км)
Погода в Maastricht (Нидерланды) (57 км)
Погода в Buechel (Германия) (71 км)
Погода в Diepenbeek (Бельгия) (72 км)

Пояснения к столбцам:

Ветер - указаны скорость ветра в м/с - средняя за 10 мин, порывы в срок и между сроками (в фигурных скобках) и направление, откуда дует ветер: С - северный, СВ - северо-восточный, В - восточный, ЮВ - юго-восточный, Ю - южный, ЮЗ - юго-западный, З - западный, СЗ - северо-западный.
Видимость - горизонтальная дальность видимости в метрах или километрах. При видимости от 1 до 10 км при отсутствии осадков обычно наблюдается дымка, при ухудшении видимости до 1 км и менее - туман. В сухую погоду видимость может ухудшаться дымом, пылью или мглою.
Явления - указаны атмосферные явления, наблюдавшиеся в срок или в последний час перед сроком; фигурными скобками обозначены явления, наблюдавшиеся между сроками (за 1-3 часа до срока); квадратными скобками обозначены град или гололедные отложения с указанием их диаметра в мм.
Облачность - указаны через наклонную черту общая и нижняя облачность в баллах и высота нижней границы облаков в метрах; квадратными скобками обозначены формы облаков: Ci - перистые, Cs - перисто-слоистые, Cc - перисто-кучевые, Ac - высококучевые, As - высокослоистые, Sc - слоисто-кучевые, Ns - слоисто-дождевые, Cu - кучевые, Cb - кучево-дождевые. Подробнее классификацию облаков см. в Атласе облаков (PDF).
T - Температура воздуха - температура, измеренная на высоте 2 м над землей.
Td - Температура точки росы - температура, при понижении до которой содержащийся в воздухе водяной пар достигнет насыщения.
f - Относительная влажность воздуха - влажноcть воздуха, измеренная на высоте 2 м над землей.
Te - Эффективная температура - температура, которую ощущает одетый по сезону человек в тени. Характеристика душности погоды. При расчете учитывается влияние влажности воздуха и скорости ветра на теплоощущения человека.
Tes - Эффективная температура на солнце - температура, которую ощущает человек, с поправкой на солнечный нагрев. Характеристика знойности погоды. Зависит от высоты солнца над горизонтом, облачности и скорости ветра. Ночью, в пасмурную погоду, а также при ветре 12 м/с и более поправка равна нулю.
P - Атмосферное давление - приведенное к уровню моря атмосферное давление.
Po - Атмосферное давление - измеренное на уровне метеостанции атмосферное давление.
Tmin - Минимальная температура - минимум температуры воздуха на высоте 2 м над землей.
Tmax - Максимальная температура - максимум температуры воздуха на высоте 2 м над землей.
R - Количество осадков - Количество выпавших осадков за период времени, мм. При наведении курсора мыши на число - период времени, за который выпало указанное количество осадков.
R24 - Количество осадков - Количество выпавших осадков за 24 часа, мм.
S - Снежный покров - Высота снежного покрова, см. При наведении курсора мыши на число - состояние снежного покрова и степень покрытия местности в баллах.